Weather History for Lamoni, IA

Change the Weather History Date:

Monday, May 14, 2012

  Actual Average Record
Temperature  
Mean Temperature 63 °F 60 °F  
Max Temperature 77 °F 71 °F 91 °F (1988)
Min Temperature 49 °F 50 °F 36 °F (1966)
Degree Days  
Heating Degree Days 2 6  
Month to date heating degree days 35 102  
Since 1 July heating degree days 4791 5997  
Cooling Degree Days 0 1  
Month to date cooling degree days 35 10  
Year to date cooling degree days 85 17  
Growing Degree Days 14 (Base 50)    
Moisture  
Dew Point 44 °F    
Average Humidity 52    
Maximum Humidity 71    
Minimum Humidity 33    
Precipitation  
Precipitation 0.00 in 0.16 in 0.43 in (1981)
Month to date precipitation 2.47 2.30  
Year to date precipitation 12.12  
Sea Level Pressure  
Sea Level Pressure 30.11 in    
Wind  
Wind Speed 6 mph (WSW)    
Max Wind Speed 12 mph    
Max Gust Speed 21 mph    
Visibility 10 miles    
Events      
T = Trace of Precipitation, MM = Missing Value Source: NWS Daily Summary

Daily Weather History Graph

Daily Weather History Graph

Search for Another Location

Airport:

Trip Planner

Search our weather history database for the weather conditions in past years. The results will help you decide how hot, cold, wet, or windy it might be!

Date:

Astronomy

May. 14, 2012 Rise Set
Actual Time 5:59 AM CDT 8:25 PM CDT
Civil Twilight 5:28 AM CDT 8:56 PM CDT
Nautical Twilight 4:49 AM CDT 9:34 PM CDT
Astronomical Twilight 4:07 AM CDT 10:17 PM CDT
Moon 2:35 AM CDT (5/14) 2:45 PM CDT (5/14)
Length of Visible Light 15h 28m
Length of Day
14h 26m
Waning Crescent, 32% of the Moon is Illuminated
May 14
Waning Crescent
May 20
New
May 28
First Quarter
Jun 4
Full
Jun 11
Last Quarter

Hourly Weather History & Observations

Time (CDT) Temp. Dew Point Humidity Pressure Visibility Wind Dir Wind Speed Gust Speed Precip Events Conditions
12:53 AM 55.9 °F 41.0 °F 57% 30.15 in 10.0 mi WSW 4.6 mph - N/A   Clear
1:53 AM 51.1 °F 42.1 °F 71% 30.15 in 10.0 mi West 3.5 mph - N/A   Clear
2:53 AM 52.0 °F 41.0 °F 66% 30.14 in 10.0 mi West 5.8 mph - N/A   Clear
3:53 AM 51.1 °F 43.0 °F 74% 30.14 in 10.0 mi NW 3.5 mph - N/A   Clear
4:53 AM 52.0 °F 41.0 °F 66% 30.13 in 10.0 mi West 5.8 mph - N/A   Clear
5:53 AM 51.1 °F 39.9 °F 66% 30.14 in 10.0 mi West 6.9 mph - N/A   Clear
6:53 AM 55.0 °F 39.0 °F 55% 30.15 in 10.0 mi WSW 3.5 mph - N/A   Clear
7:53 AM 60.1 °F 46.0 °F 60% 30.16 in 10.0 mi WSW 4.6 mph - N/A   Clear
8:53 AM 64.9 °F 46.9 °F 52% 30.16 in 10.0 mi WSW 3.5 mph - N/A   Clear
9:53 AM 69.1 °F 46.0 °F 44% 30.16 in 10.0 mi West 6.9 mph - N/A   Clear
10:53 AM 71.1 °F 46.9 °F 42% 30.16 in 10.0 mi SW 10.4 mph - N/A   Clear
11:53 AM 72.0 °F 43.0 °F 35% 30.15 in 10.0 mi Variable 5.8 mph - N/A   Clear
12:53 PM 73.0 °F 42.1 °F 33% 30.13 in 10.0 mi Calm Calm - N/A   Clear
1:53 PM 73.9 °F 44.1 °F 34% 30.12 in 10.0 mi Variable 5.8 mph 17.3 mph N/A   Clear
2:53 PM 75.0 °F 45.0 °F 34% 30.09 in 10.0 mi West 8.1 mph - N/A   Clear
3:53 PM 75.0 °F 48.0 °F 38% 30.06 in 10.0 mi SW 8.1 mph - N/A   Clear
4:53 PM 77.0 °F 46.0 °F 33% 30.05 in 10.0 mi Calm Calm - N/A   Clear
6:53 PM 73.9 °F 46.9 °F 38% 30.03 in 10.0 mi South 5.8 mph - N/A   Clear
7:53 PM 71.1 °F 50.0 °F 47% 30.02 in 10.0 mi South 4.6 mph - N/A   Clear
8:53 PM 66.0 °F 46.9 °F 50% 30.02 in 10.0 mi South 6.9 mph - N/A   Clear
10:53 PM 63.0 °F 46.0 °F 54% 30.03 in 10.0 mi South 9.2 mph - N/A   Clear
11:53 PM 59.0 °F 45.0 °F 60% 30.03 in 10.0 mi SSW 8.1 mph - N/A   Clear